FW3855 Weather Reports


time (UTC)temp
C
wind
direction
speed
KPH
gust
KPH
rain 1hr
cm
rain 24hr
cm
rain mn
cm
humidity
%
barometer
mb
20260904010658 28 217 6.4 19.3 0.00 0.00 0.00 14 1015.3
20260904010159 28 215 8.0 16.1 0.00 0.00 0.00 14 1015.3
20260904005656 28 268 8.0 25.7 0.00 0.00 0.00 14 1015.3
20260904005158 28 237 6.4 25.7 0.00 0.00 0.00 13 1015.2
20260904004655 28 240 6.4 22.5 0.00 0.00 0.00 14 1015.2
20260904004159 28 229 8.0 22.5 0.00 0.00 0.00 14 1015.3
20260904003656 29 200 9.7 20.9 0.00 0.00 0.00 14 1015.3
20260904003155 29 164 8.0 20.9 0.00 0.00 0.00 13 1015.2
20260904002656 29 218 8.0 19.3 0.00 0.00 0.00 14 1015.3
20260904002156 29 224 8.0 25.7 0.00 0.00 0.00 14 1015.2
20260904001655 29 200 8.0 25.7 0.00 0.00 0.00 13 1015.2
20260904001157 29 268 9.7 22.5 0.00 0.00 0.00 13 1015.2
20260904000151 29 192 9.7 27.4 0.00 0.00 0.00 14 1015.2
20260903235651 30 106 8.0 24.1 0.00 0.00 0.00 13 1015.2
20260903234650 30 155 8.0 19.3 0.00 0.00 0.00 14 1015.3
20260903234150 30 220 8.0 19.3 0.00 0.00 0.00 15 1015.4
20260903233652 30 179 6.4 19.3 0.00 0.00 0.00 15 1015.4
20260903233151 30 230 6.4 19.3 0.00 0.00 0.00 14 1015.3
20260903232652 30 76 9.7 27.4 0.00 0.00 0.00 13 1015.6
20260903232152 30 177 9.7 27.4 0.00 0.00 0.00 12 1015.7
20260903231652 30 219 9.7 27.4 0.00 0.00 0.00 14 1015.7
20260903231151 30 233 9.7 27.4 0.00 0.00 0.00 14 1015.7
20260903230650 30 117 11.3 22.5 0.00 0.00 0.00 13 1015.7
20260903230149 30 209 9.7 24.1 0.00 0.00 0.00 13 1015.7
20260903225650 30 180 9.7 24.1 0.00 0.00 0.00 13 1015.6
20260903225148 29 160 11.3 24.1 0.00 0.00 0.00 11 1015.8
20260903224648 30 141 11.3 24.1 0.00 0.00 0.00 10 1015.8
20260903224149 30 173 11.3 24.1 0.00 0.00 0.00 10 1015.9
20260903223650 30 135 9.7 22.5 0.00 0.00 0.00 9 1016.0
20260903222646 30 172 9.7 22.5 0.00 0.00 0.00 9 1016.1
20260903222146 30 82 8.0 25.7 0.00 0.00 0.00 9 1016.1
20260903221648 30 274 9.7 27.4 0.00 0.00 0.00 9 1016.2
20260903221144 30 203 11.3 30.6 0.00 0.00 0.00 9 1016.2
20260903220643 30 138 11.3 30.6 0.00 0.00 0.00 9 1016.2
20260903220142 30 147 11.3 29.0 0.00 0.00 0.00 9 1016.1
20260903215142 30 198 9.7 29.0 0.00 0.00 0.00 9 1016.2
20260903214640 30 134 11.3 24.1 0.00 0.00 0.00 9 1016.1
20260903214139 30 251 11.3 30.6 0.00 0.00 0.00 9 1016.4
20260903213636 30 158 11.3 30.6 0.00 0.00 0.00 9 1016.2
20260903213138 30 200 12.9 30.6 0.00 0.00 0.00 9 1016.4
20260903212636 30 255 12.9 40.2 0.00 0.00 0.00 10 1016.5
20260903212136 30 147 11.3 40.2 0.00 0.00 0.00 8 1016.4
20260903210625 30 352 8.0 22.5 0.00 0.00 0.00 11 1016.4
20260903210119 30 279 8.0 30.6 0.00 0.00 0.00 11 1016.2
20260903205107 29 231 14.5 30.6 0.00 0.00 0.00 12 1016.5
20260903204601 29 172 14.5 41.8 0.00 0.00 0.00 12 1016.4
20260903204055 29 240 14.5 41.8 0.00 0.00 0.00 13 1016.5
20260903203549 30 202 11.3 32.2 0.00 0.00 0.00 12 1016.6
20260903202537 30 179 11.3 29.0 0.00 0.00 0.00 12 1016.5
20260903202030 30 96 9.7 25.7 0.00 0.00 0.00 11 1016.5
20260903201017 30 209 11.3 35.4 0.00 0.00 0.00 9 1016.6
20260903200511 30 153 9.7 29.0 0.00 0.00 0.00 8 1016.7
20260903200005 30 146 8.0 25.7 0.00 0.00 0.00 8 1016.7
20260903194954 30 261 11.3 27.4 0.00 0.00 0.00 5 1016.9
20260903194447 29 245 12.9 27.4 0.00 0.00 0.00 5 1017.0
20260903193942 29 168 11.3 29.0 0.00 0.00 0.00 3 1016.9
20260903193435 29 252 9.7 29.0 0.00 0.00 0.00 2 1017.0
20260903192929 29 198 8.0 25.7 0.00 0.00 0.00 1 1016.9
20260903191411 28 149 11.3 29.0 0.00 0.00 0.00 2 1017.3
20260903190905 28 172 12.9 30.6 0.00 0.00 0.00 4 1017.2
20260903190358 28 211 12.9 30.6 0.00 0.00 0.00 4 1017.3
20260903185853 28 157 12.9 37.0 0.00 0.00 0.00 6 1017.5
20260903185347 28 132 11.3 37.0 0.00 0.00 0.00 6 1017.5
20260903184841 28 98 9.7 22.5 0.00 0.00 0.00 5 1017.6
20260903184335 28 150 9.7 35.4 0.00 0.00 0.00 5 1017.5
20260903183829 27 193 9.7 35.4 0.00 0.00 0.00 8 1017.6
20260903183323 27 166 8.0 27.4 0.00 0.00 0.00 7 1017.6
20260903182817 27 107 9.7 25.7 0.00 0.00 0.00 8 1017.6
20260903182311 27 153 9.7 30.6 0.00 0.00 0.00 9 1017.8
20260903181808 27 154 8.0 30.6 0.00 0.00 0.00 10 1017.7
20260903181259 27 89 9.7 27.4 0.00 0.00 0.00 10 1017.8
20260903180753 27 129 9.7 27.4 0.00 0.00 0.00 9 1017.7
20260903175741 27 252 9.7 25.7 0.00 0.00 0.00 10 1017.8
20260903174730 27 200 9.7 24.1 0.00 0.00 0.00 10 1017.8
20260903174223 26 209 11.3 24.1 0.00 0.00 0.00 10 1017.8
20260903173717 26 96 9.7 22.5 0.00 0.00 0.00 10 1017.8
20260903173211 26 82 8.0 22.5 0.00 0.00 0.00 9 1017.8
20260903172705 26 208 11.3 29.0 0.00 0.00 0.00 10 1018.0
20260903172159 26 53 11.3 29.0 0.00 0.00 0.00 9 1018.0
20260903171653 26 145 11.3 27.4 0.00 0.00 0.00 9 1018.0
20260903170641 26 114 8.0 27.4 0.00 0.00 0.00 9 1017.8
20260903170135 26 169 9.7 22.5 0.00 0.00 0.00 9 1017.8
20260903165629 26 165 11.3 24.1 0.00 0.00 0.00 9 1017.8
20260903165123 26 122 9.7 27.4 0.00 0.00 0.00 10 1017.8
20260903164111 26 101 9.7 27.4 0.00 0.00 0.00 10 1017.8
20260903163605 25 258 11.3 24.1 0.00 0.00 0.00 10 1017.8
20260903162553 25 148 11.3 27.4 0.00 0.00 0.00 10 1017.8
20260903161541 25 160 11.3 32.2 0.00 0.00 0.00 10 1018.0
20260903161035 25 120 8.0 32.2 0.00 0.00 0.00 10 1017.8
20260903160528 25 178 6.4 19.3 0.00 0.00 0.00 10 1018.0
20260903160023 25 203 8.0 29.0 0.00 0.00 0.00 10 1017.8
20260903155517 25 353 9.7 29.0 0.00 0.00 0.00 10 1017.8
20260903155011 24 119 8.0 20.9 0.00 0.00 0.00 12 1017.7
20260903154508 24 87 9.7 29.0 0.00 0.00 0.00 12 1017.7
20260903153508 23 145 8.0 27.4 0.00 0.00 0.00 12 1017.7
20260903153008 23 251 6.4 22.5 0.00 0.00 0.00 13 1017.7
20260903152508 23 323 4.8 25.7 0.00 0.00 0.00 13 1017.7
20260903152010 23 47 6.4 25.7 0.00 0.00 0.00 13 1017.8
20260903151506 23 95 4.8 20.9 0.00 0.00 0.00 12 1017.7
20260903151007 23 294 3.2 20.9 0.00 0.00 0.00 12 1017.8
20260903150507 23 130 3.2 12.9 0.00 0.00 0.00 11 1018.0
20260903150008 22 349 3.2 12.9 0.00 0.00 0.00 11 1017.8
20260903144505 22 225 6.4 20.9 0.00 0.00 0.00 10 1018.0
20260903144002 22 120 6.4 19.3 0.00 0.00 0.00 11 1017.8
20260903143502 22 0.0 0.0 0.00 0.00 0.00 11 1017.7
20260903143005 22 0.0 0.0 0.00 0.00 0.00 10 1017.5